Temperature
4 4 3 3 3 3 3 3 2 2 3 4 4 5 5 6 6 6 6 7 7 7 7 7 7 7 7 7 7 7 7 7 7 7 7 6 6 6
3 3 3 3 3 2 3 3 3 2 2 3 4 4 5 5 5 5 6 6 7 7 7 7 7 7 7 7 7 7 6 6 6 6 6 6 6 6
3 3 3 3 2 2 2 2 2 2 2 3 3 4 4 5 5 5 5 6 6 6 6 7 7 6 6 6 6 6 6 6 6 6 6 6 5 5
3 3 3 2 2 2 2 2 2 2 2 2 3 3 4 4 5 5 5 5 6 6 6 6 6 6 6 6 6 6 5 5 5 5 5 5 5 5
2 2 2 2 2 2 2 2 2 2 2 2 3 3 3 4 4 5 5 5 5 5 5 6 6 5 6 5 5 5 5 5 5 5 5 5 4 4
2 2 2 2 2 2 2 2 2 2 2 2 2 3 3 4 4 4 4 5 5 5 5 5 5 5 5 5 5 5 4 4 4 4 4 4 4 4
2 2 2 2 2 2 2 2 2 2 2 2 2 3 3 3 3 4 4 4 4 4 4 4 4 4 4 4 4 4 4 4 4 4 4 3 3 3
2 2 2 2 2 2 2 2 2 2 2 2 2 3 3 3 3 3 3 3 3 3 3 3 4 4 4 4 4 4 3 3 3 3 3 3 3 3
1 2 2 2 2 2 2 2 2 2 2 2 2 3 3 3 3 3 3 3 3 3 3 3 3 3 3 3 3 3 3 3 3 3 3 2 2 2
1 1 1 1 2 1 1 1 2 2 2 2 2 3 3 3 3 3 3 3 3 3 3 2 2 2 2 2 2 2 2 2 2 2 2 2 2 1
1 1 1 1 1 1 1 1 2 2 2 2 2 2 2 3 3 3 3 2 2 2 2 2 2 2 2 2 2 2 2 2 2 2 2 1 1 1
1 1 1 1 1 1 1 1 1 2 2 2 2 2 2 2 2 2 3 2 2 1 2 2 1 1 1 1 1 1 1 1 1 1 1 1 1 1
1 1 1 1 1 1 1 1 1 1 1 1 2 2 2 2 2 2 2 2 2 2 2 1 1 1 1 0 1 1 0 0 0 0 0 0 0 0
0 1 1 1 1 1 1 1 1 1 1 1 1 1 2 2 2 2 2 2 2 2 2 2 1 1 1 0 -0 -0 -0 -0 -0 -0 0 -0 -0 -0
-0 0 0 0 1 1 1 1 1 1 1 1 1 1 1 1 1 1 1 1 1 2 2 1 1 1 1 1 0 -0 -0 -0 -0 -0 -0 -1 -1 -1
-0 -0 0 0 1 1 1 1 0 0 1 1 1 1 1 1 1 1 1 1 1 1 1 1 1 1 1 0 -0 -0 -1 -1 -1 -1 -1 -1 -1 -1
-1 -0 -0 -0 0 0 0 0 0 0 0 0 0 1 1 1 1 1 1 1 1 0 0 0 0 0 -0 -0 -1 -1 -1 -1 -1 -1 -1 -1 -1 -1
-1 -1 -1 -1 -1 -0 -0 -0 0 0 0 0 1 1 1 1 0 0 0 0 0 0 0 -0 -0 -0 -1 -1 -1 -1 -1 -1 -1 -1 -1 -1 -1 -2
-1 -1 -1 -1 -1 -1 -0 -0 0 0 0 0 0 0 0 0 0 0 0 0 -0 -0 -0 -1 -1 -1 -1 -2 -2 -2 -2 -2 -2 -2 -2 -2 -2 -2
-2 -2 -2 -2 -1 -1 -0 -0 -0 -0 -0 0 0 0 0 0 0 -0 -0 -0 -0 -1 -1 -1 -1 -1 -1 -2 -2 -2 -2 -2 -2 -2 -2 -2 -2 -2
-2 -2 -2 -2 -1 -1 -1 -0 -0 -0 -0 -0 -0 -0 -0 -0 -0 -0 -1 -1 -1 -1 -1 -1 -1 -1 -1 -1 -2 -2 -2 -2 -2 -2 -2 -2 -2 -2
-2 -2 -2 -2 -1 -1 -1 -1 -1 -0 -0 -0 -0 -0 -0 -0 -1 -1 -1 -1 -1 -1 -2 -2 -2 -2 -1 -2 -2 -2 -2 -2 -2 -2 -2 -2 -2 -2
-3 -2 -2 -2 -1 -1 -1 -1 -1 -1 -1 -0 -1 -1 -1 -1 -1 -1 -1 -1 -1 -2 -2 -2 -2 -2 -2 -2 -2 -2 -3 -3 -3 -3 -3 -2 -2 -2
Wind_Speed
9 10 9 8 7 7 7 7 8 11 12 8 5 6 7 8 10 9 10 14 15 15 14 13 11 10 10 10 9 9 8 7 7 7 8 7 7 7
8 9 10 8 8 7 7 8 8 10 12 7 7 7 7 8 11 9 10 14 13 13 12 10 9 8 8 8 7 7 7 6 7 7 7 6 5 6
10 10 11 9 8 8 7 8 8 8 11 10 7 7 7 7 7 7 8 8 8 10 10 9 7 7 7 7 7 7 6 6 6 6 7 5 5 5
11 11 11 9 10 9 8 9 9 8 9 12 9 7 7 6 5 5 5 5 5 7 7 6 6 6 6 6 6 6 5 4 4 4 5 4 5 5
11 12 12 10 11 9 9 9 8 8 8 9 10 6 5 4 3 3 3 2 3 3 3 3 4 4 5 5 5 5 4 4 3 4 4 3 4 5
11 12 12 11 11 11 9 9 8 8 7 8 8 6 5 3 2 2 2 2 1 2 1 1 3 4 4 5 5 4 4 4 4 4 2 2 3 4
11 11 11 12 14 12 9 8 8 7 7 7 7 6 4 2 2 1 1 2 2 1 2 2 2 1 1 3 3 4 4 3 4 4 3 1 1 1
11 10 10 11 13 15 16 15 12 10 9 7 6 6 6 3 2 2 1 0 2 1 2 2 2 1 1 0 2 3 4 4 4 4 3 2 1 0
10 9 9 9 10 9 12 13 13 15 14 10 8 8 6 5 4 2 2 1 1 0 2 1 2 1 2 0 2 3 4 4 4 4 3 2 2 2
9 9 9 9 9 9 7 8 8 7 8 7 7 7 6 5 4 3 3 2 2 1 1 0 1 1 2 2 2 4 4 4 4 4 4 3 3 3
7 7 8 9 11 11 7 7 5 4 3 3 4 4 5 5 4 3 4 3 0 1 1 1 1 1 2 2 2 4 4 4 4 4 4 3 3 4
5 5 8 9 11 10 7 6 5 3 2 1 1 1 2 2 2 3 5 4 2 1 1 1 1 1 1 2 2 2 3 4 4 4 4 4 4 4
4 4 4 8 9 8 6 5 5 3 2 2 1 1 1 1 1 1 1 3 3 2 2 1 1 0 1 0 2 2 3 2 2 3 4 5 4 3
4 3 3 5 5 5 3 4 4 2 2 2 2 1 2 1 1 2 3 3 2 2 3 2 2 2 1 0 0 2 2 2 2 2 2 4 5 5
2 3 4 4 2 1 2 2 2 2 3 3 2 2 2 2 3 3 4 5 6 4 2 1 3 3 2 2 1 1 1 2 2 2 2 3 2 2
3 3 3 2 1 1 1 2 2 3 3 3 3 2 3 3 3 2 3 3 4 4 5 5 4 4 3 3 3 2 1 1 1 2 2 2 2 2
2 1 2 2 2 2 2 2 2 3 3 3 4 3 3 3 3 2 3 3 3 3 3 5 6 6 5 4 4 3 2 2 1 1 2 3 3 2
2 1 1 1 1 2 2 2 2 3 3 3 4 4 3 3 3 3 3 4 5 4 4 3 3 4 4 5 5 3 2 2 2 2 2 2 2 3
1 1 1 1 1 1 2 2 2 3 3 3 3 4 4 3 4 4 4 5 5 4 3 2 2 3 4 3 3 4 2 2 2 2 2 2 1 2
1 1 1 1 1 1 2 2 3 3 3 3 3 3 4 4 4 4 4 5 5 4 3 3 2 3 4 3 2 3 4 2 2 2 2 2 2 3
1 1 1 1 1 1 2 2 3 3 3 3 3 3 4 4 5 4 5 6 5 4 4 3 2 4 4 4 4 3 4 5 4 2 1 2 2 3
1 1 1 1 1 2 2 2 3 3 3 3 3 3 3 4 5 5 5 5 5 5 4 3 3 4 4 5 5 4 4 4 7 8 6 3 1 1
1 1 1 1 1 2 2 3 3 3 3 3 4 4 4 4 4 5 5 6 6 6 6 5 4 4 4 5 5 5 6 4 4 5 6 8 8 6
Wind_Direction
247 246 248 253 248 248 248 246 256 279 283 277 271 264 267 270 271 272 270 269 267 265 261 252 244 238 236 232 229 228 226 225 219 229 233 222 227 234
250 249 250 253 252 249 248 248 243 254 272 277 273 278 273 278 275 275 274 275 266 263 255 245 237 229 225 223 221 217 215 215 218 232 231 219 225 237
254 251 252 252 253 254 251 248 246 245 265 279 277 279 272 274 281 275 278 272 261 254 249 241 231 218 212 210 205 203 205 211 220 238 225 220 231 245
256 254 255 255 252 252 249 249 248 246 255 273 283 279 272 272 274 274 283 286 267 250 241 235 225 207 194 188 188 191 194 204 220 232 211 220 236 253
255 254 254 251 253 253 249 250 251 254 251 263 276 276 276 274 285 288 289 292 292 274 226 199 189 175 168 163 165 169 177 190 214 211 199 224 246 261
256 254 252 246 249 253 252 250 251 253 253 259 267 271 265 261 258 263 308 342 347 8 44 95 131 131 142 149 157 167 177 192 202 188 182 226 248 262
262 257 252 249 250 252 253 250 248 252 255 260 262 267 258 247 249 232 266 357 17 47 80 56 82 94 133 141 149 170 183 195 187 175 171 186 245 275
264 261 256 252 253 256 257 255 250 248 250 253 259 254 250 239 232 223 179 123 330 40 82 24 43 50 8 167 165 166 167 171 171 167 164 162 155 349
258 257 260 255 256 251 258 261 258 254 249 247 246 248 236 216 200 218 202 223 276 235 82 12 16 12 360 69 118 144 152 139 135 136 133 124 107 68
257 248 248 251 248 247 251 258 257 254 248 240 233 234 226 205 198 198 164 102 52 22 80 110 355 8 20 22 84 100 116 138 141 130 119 101 78 67
264 252 248 248 251 250 251 252 255 265 264 236 222 210 205 200 183 150 149 141 102 330 349 121 113 33 28 31 44 73 87 98 109 113 104 83 71 67
274 260 254 252 253 253 239 226 230 240 202 152 133 154 171 174 190 183 172 164 164 250 238 112 129 76 44 20 32 46 68 71 72 74 75 68 66 70
278 275 263 260 260 257 242 214 211 213 180 151 139 124 114 114 108 100 140 164 178 216 189 134 135 84 124 80 30 47 61 51 50 60 63 61 55 66
282 279 271 272 273 257 238 186 186 182 146 133 125 126 125 114 83 74 74 69 75 157 188 172 160 174 152 121 67 51 44 46 52 50 51 53 52 49
297 290 287 289 294 254 157 161 162 146 140 137 142 147 136 127 106 87 75 72 60 46 39 87 138 145 128 137 131 107 54 34 46 58 51 49 43 45
310 312 315 337 49 101 112 113 125 139 142 144 141 128 116 112 105 113 109 95 75 52 44 54 87 115 109 100 118 118 92 96 51 52 55 40 35 48
324 11 39 44 72 80 85 96 107 117 118 130 134 128 119 109 103 104 108 97 98 100 69 58 65 74 79 105 108 105 96 81 84 64 64 46 21 22
350 65 64 62 81 106 113 106 105 115 118 124 130 132 128 123 112 98 101 107 108 107 102 96 97 84 72 56 62 109 91 84 75 59 67 65 26 8
24 71 81 95 97 101 118 117 115 117 120 125 126 128 128 125 121 113 110 106 105 104 100 107 99 105 105 80 29 47 103 98 85 61 49 56 42 350
45 81 86 96 108 110 118 118 114 117 119 122 122 125 130 128 123 120 114 114 112 106 97 78 76 99 115 122 100 32 54 103 102 82 51 42 23 357
28 60 94 110 119 119 120 120 121 124 124 122 122 125 127 125 123 120 119 116 111 111 108 86 61 86 95 93 90 62 37 47 75 95 90 69 38 24
35 47 79 105 118 126 125 122 120 119 122 122 124 125 125 125 126 125 125 121 114 108 103 93 84 81 81 97 102 93 69 50 54 59 54 68 106 88
32 43 89 131 132 129 128 127 128 125 122 124 122 122 123 121 121 122 121 118 115 112 108 99 78 71 76 96 106 99 87 73 58 55 45 47 60 73
Height
1421 1420 1419 1418 1418 1418 1417 1416 1414 1408 1402 1401 1402 1402 1402 1401 1400 1399 1398 1397 1397 1398 1399 1400 1401 1403 1405 1407 1408 1409 1411 1413 1414 1416 1417 1418 1419 1420
1413 1413 1412 1411 1410 1410 1410 1409 1408 1405 1399 1396 1396 1396 1396 1395 1395 1393 1392 1391 1391 1391 1392 1393 1394 1396 1399 1400 1402 1404 1406 1407 1408 1410 1411 1413 1414 1415
1405 1405 1404 1404 1403 1402 1402 1401 1401 1400 1395 1391 1391 1391 1390 1389 1388 1388 1387 1385 1385 1385 1386 1387 1388 1390 1392 1394 1396 1398 1400 1401 1403 1405 1406 1407 1408 1409
1397 1397 1396 1396 1395 1395 1394 1394 1393 1393 1391 1387 1385 1385 1384 1383 1382 1382 1381 1380 1380 1380 1381 1382 1383 1385 1387 1389 1391 1393 1394 1396 1398 1399 1400 1402 1403 1404
1390 1389 1388 1388 1387 1388 1387 1386 1386 1386 1385 1383 1381 1380 1379 1379 1378 1377 1377 1376 1376 1376 1376 1377 1379 1381 1383 1385 1387 1388 1390 1391 1393 1394 1395 1396 1398 1399
1382 1381 1381 1381 1380 1380 1380 1380 1380 1380 1379 1378 1376 1375 1374 1374 1374 1373 1372 1372 1373 1373 1373 1375 1377 1378 1380 1381 1383 1384 1386 1387 1388 1390 1391 1392 1393 1394
1374 1374 1373 1373 1373 1374 1374 1373 1374 1373 1373 1373 1371 1370 1369 1370 1370 1370 1369 1369 1370 1371 1371 1373 1375 1376 1377 1378 1380 1380 1382 1383 1385 1386 1387 1388 1389 1390
1366 1366 1366 1366 1367 1367 1367 1367 1368 1368 1367 1367 1367 1366 1365 1366 1367 1367 1367 1367 1366 1369 1369 1370 1373 1373 1375 1376 1377 1378 1379 1380 1381 1382 1384 1385 1386 1386
1359 1359 1359 1359 1360 1361 1360 1361 1361 1362 1362 1362 1361 1361 1362 1363 1364 1364 1364 1364 1364 1366 1368 1368 1371 1372 1373 1374 1375 1376 1377 1378 1379 1379 1381 1382 1383 1383
1352 1352 1353 1353 1354 1354 1354 1354 1354 1355 1356 1356 1357 1357 1358 1359 1361 1361 1362 1362 1363 1365 1367 1367 1369 1370 1372 1373 1374 1375 1376 1377 1377 1378 1379 1380 1380 1381
1347 1347 1347 1347 1348 1348 1349 1349 1349 1349 1351 1352 1352 1354 1355 1356 1358 1359 1359 1360 1361 1363 1365 1366 1368 1369 1371 1372 1373 1374 1374 1375 1376 1377 1378 1378 1379 1379
1342 1342 1342 1342 1342 1343 1344 1344 1344 1345 1346 1347 1349 1350 1352 1354 1355 1357 1357 1358 1359 1361 1363 1365 1366 1368 1370 1371 1372 1373 1373 1374 1375 1376 1377 1377 1377 1377
1338 1337 1337 1337 1337 1338 1339 1340 1340 1342 1343 1344 1346 1347 1349 1351 1353 1354 1356 1357 1358 1359 1361 1364 1365 1367 1368 1370 1371 1372 1373 1374 1374 1375 1376 1377 1377 1377
1334 1333 1332 1333 1333 1334 1335 1336 1337 1339 1340 1342 1343 1344 1346 1348 1350 1352 1354 1355 1357 1358 1360 1363 1364 1366 1367 1368 1370 1371 1373 1374 1374 1375 1376 1376 1376 1376
1331 1330 1329 1329 1329 1330 1331 1333 1334 1336 1337 1339 1341 1343 1345 1347 1349 1350 1352 1353 1355 1357 1359 1361 1363 1365 1366 1368 1369 1370 1371 1373 1374 1374 1375 1375 1375 1375
1328 1327 1327 1326 1327 1327 1329 1331 1333 1334 1336 1338 1339 1342 1344 1346 1347 1349 1351 1352 1354 1356 1359 1361 1363 1365 1366 1367 1369 1370 1371 1372 1373 1374 1375 1375 1375 1375
1326 1325 1324 1324 1325 1326 1327 1329 1332 1334 1335 1337 1339 1341 1343 1345 1347 1349 1350 1352 1353 1355 1358 1360 1362 1364 1366 1368 1369 1370 1371 1372 1374 1374 1375 1375 1375 1375
1325 1323 1323 1324 1325 1326 1327 1329 1331 1333 1335 1336 1338 1340 1342 1344 1346 1348 1350 1352 1353 1356 1358 1360 1362 1364 1366 1368 1370 1371 1372 1373 1374 1375 1375 1375 1376 1376
1323 1323 1323 1324 1325 1326 1328 1329 1331 1333 1335 1337 1339 1341 1342 1344 1346 1348 1350 1352 1354 1356 1359 1361 1363 1364 1365 1367 1371 1372 1373 1373 1375 1375 1376 1376 1376 1376
1323 1323 1323 1324 1325 1326 1328 1330 1331 1334 1336 1337 1339 1341 1343 1344 1346 1348 1350 1352 1355 1357 1359 1362 1364 1365 1366 1368 1370 1373 1374 1375 1375 1376 1377 1377 1377 1378
1323 1323 1323 1324 1325 1327 1329 1330 1332 1334 1336 1338 1340 1341 1343 1345 1347 1349 1351 1354 1356 1358 1360 1363 1365 1367 1368 1370 1371 1373 1375 1376 1377 1377 1378 1378 1378 1378
1323 1323 1324 1325 1326 1328 1329 1331 1333 1335 1337 1338 1340 1342 1344 1345 1347 1350 1352 1355 1357 1359 1362 1364 1367 1368 1370 1371 1372 1374 1376 1378 1379 1380 1380 1381 1380 1380
1323 1324 1324 1326 1327 1328 1330 1332 1334 1335 1337 1339 1341 1343 1344 1346 1348 1351 1353 1356 1358 1361 1363 1365 1368 1370 1371 1372 1374 1376 1378 1379 1380 1381 1382 1383 1383 1383